contact:dominique.lefevre@mio.osupytheas.fr, maurice.libes@osupytheas.fr, didier.mallarino@osupytheas.fr
Project:EMSO http://www.emso-fr.org/EMSO-France
Depth: 2436.0 m
Title:EMSO Ligure Ouest : Data MII capteur AQUADOPP
Date,Latitude,Longitude,X_East,Y_North,Z_Up,Amplitude_X,Amplitude_Y,Amplitude_Z,Batterie,SoundSpeed,Heading,Pitch,Roll,Pressure,TIS,Speed,Direction
, degrees North, degrees East, m.s-1, m.s-1,m.s-1, 1, 1, 1, Volt, m.s-1, degree, degree, degree, dbar, degree_C, m.s-1, degree
2020-05-25T00:04:03,42.805,6.029,0.001,0.022,-0.002,105.0,109.0,102.0,13.3,1505.3,325.8,-0.7,1.8,2470.375,13.31,0.022,2.6
2020-05-25T00:07:03,42.805,6.029,-0.021,0.041,-0.025,106.0,109.0,103.0,13.4,1505.3,326.2,-0.7,1.8,2470.337,13.32,0.046,332.9
2020-05-25T00:10:03,42.805,6.029,-0.013,0.012,-0.026,105.0,109.0,103.0,13.3,1505.3,326.3,-0.7,1.8,2470.351,13.32,0.017,312.7
2020-05-25T00:13:03,42.805,6.029,-0.005,0.033,-0.002,105.0,109.0,103.0,13.4,1505.3,326.1,-0.7,1.8,2470.362,13.33,0.033,351.4
2020-05-25T00:16:03,42.805,6.029,0.015,0.013,0.002,105.0,108.0,102.0,13.4,1505.3,324.4,-0.7,1.8,2470.338,13.33,0.019,49.1
2020-05-25T00:19:03,42.805,6.029,-0.008,0.012,-0.013,104.0,109.0,103.0,13.4,1505.3,325.1,-0.7,1.8,2470.339,13.33,0.014,326.3
2020-05-25T00:22:03,42.805,6.029,-0.013,0.025,-0.015,106.0,109.0,102.0,13.3,1505.3,326.6,-0.7,1.8,2470.353,13.33,0.028,332.5
2020-05-25T00:25:03,42.805,6.029,-0.015,0.028,-0.015,106.0,110.0,103.0,13.4,1505.3,324.7,-0.7,1.9,2470.354,13.33,0.031,331.8
2020-05-25T00:28:03,42.805,6.029,-0.009,0.038,-0.031,105.0,109.0,102.0,13.4,1505.3,326.6,-0.7,1.8,2470.34,13.33,0.039,346.7
2020-05-25T00:31:03,42.805,6.029,0.007,0.028,0.021,105.0,109.0,102.0,13.4,1505.3,325.3,-0.7,1.9,2470.345,13.33,0.028,14.0
2020-05-25T00:34:03,42.805,6.029,-0.002,0.039,0.013,105.0,111.0,103.0,13.3,1505.3,324.7,-0.7,1.8,2470.352,13.33,0.039,357.1
2020-05-25T00:37:03,42.805,6.029,0.015,0.023,0.003,103.0,109.0,102.0,13.3,1505.3,325.5,-0.7,1.8,2470.295,13.33,0.027,33.1
2020-05-25T00:40:03,42.805,6.029,-0.005,0.015,-0.036,106.0,109.0,102.0,13.3,1505.3,325.0,-0.7,1.9,2470.307,13.33,0.015,341.6
2020-05-25T00:43:03,42.805,6.029,0.02,0.045,-0.005,105.0,108.0,103.0,13.4,1505.3,325.8,-0.7,1.9,2470.325,13.33,0.049,24.0
2020-05-25T00:46:03,42.805,6.029,0.001,0.025,0.0,106.0,109.0,103.0,13.4,1505.3,327.4,-0.7,1.8,2470.337,13.33,0.025,2.3
2020-05-25T00:49:03,42.805,6.029,0.01,0.04,0.0,105.0,109.0,103.0,13.4,1505.3,325.7,-0.7,1.9,2470.336,13.33,0.041,14.0
2020-05-25T00:52:03,42.805,6.029,-0.021,0.023,-0.015,106.0,110.0,102.0,13.4,1505.3,323.4,-0.7,1.8,2470.316,13.33,0.031,317.6
2020-05-25T00:55:03,42.805,6.029,-0.026,0.047,-0.025,106.0,108.0,102.0,13.4,1505.3,323.0,-0.7,1.8,2470.278,13.33,0.053,331.0
2020-05-25T00:58:03,42.805,6.029,-0.024,0.018,-0.029,105.0,109.0,103.0,13.3,1505.3,325.2,-0.7,1.8,2470.345,13.33,0.03,306.9
2020-05-25T01:04:03,42.805,6.029,-0.007,0.03,-0.004,107.0,111.0,103.0,13.4,1505.3,326.5,-0.7,1.9,2470.358,13.31,0.03,346.9
2020-05-25T01:07:03,42.805,6.029,-0.006,0.033,-0.023,107.0,109.0,102.0,13.4,1505.3,326.6,-0.7,1.8,2470.357,13.32,0.033,349.7
2020-05-25T01:10:03,42.805,6.029,-0.01,0.025,-0.045,104.0,108.0,104.0,13.3,1505.3,325.5,-0.7,1.8,2470.358,13.32,0.026,338.2
2020-05-25T01:13:03,42.805,6.029,-0.038,0.022,-0.011,106.0,109.0,102.0,13.4,1505.3,327.3,-0.7,1.8,2470.347,13.32,0.043,300.1
2020-05-25T01:16:03,42.805,6.029,-0.023,0.028,-0.027,105.0,108.0,102.0,13.4,1505.3,323.3,-0.7,1.8,2470.311,13.33,0.036,320.6
2020-05-25T01:19:03,42.805,6.029,-0.004,0.023,0.018,105.0,108.0,107.0,13.4,1505.3,322.6,-0.7,1.8,2470.305,13.33,0.023,350.1
2020-05-25T01:22:03,42.805,6.029,-0.009,0.025,-0.037,107.0,108.0,102.0,13.4,1505.3,324.9,-0.7,1.9,2470.309,13.33,0.026,340.2
2020-05-25T01:25:03,42.805,6.029,0.005,0.018,0.009,106.0,110.0,103.0,13.4,1505.3,328.4,-0.7,1.9,2470.322,13.33,0.018,15.5
2020-05-25T01:28:03,42.805,6.029,-0.013,0.023,-0.036,107.0,108.0,103.0,13.4,1505.3,324.7,-0.7,1.8,2470.327,13.33,0.026,330.5
2020-05-25T01:31:03,42.805,6.029,-0.016,0.034,-0.017,106.0,108.0,103.0,13.4,1505.3,327.0,-0.7,1.9,2470.327,13.33,0.037,334.8
2020-05-25T01:34:03,42.805,6.029,-0.005,0.033,-0.017,106.0,108.0,103.0,13.4,1505.3,325.1,-0.7,1.8,2470.301,13.33,0.033,351.4
2020-05-25T01:37:03,42.805,6.029,0.0,0.013,-0.023,106.0,108.0,103.0,13.4,1505.3,326.7,-0.7,1.8,2470.297,13.33,0.013,0.0
2020-05-25T01:40:03,42.805,6.029,-0.006,0.024,-0.012,107.0,107.0,102.0,13.3,1505.3,326.1,-0.7,1.9,2470.259,13.33,0.024,346.0
2020-05-25T01:43:03,42.805,6.029,-0.02,0.003,-0.01,106.0,109.0,103.0,13.4,1505.3,324.8,-0.7,1.8,2470.31,13.33,0.02,278.5
2020-05-25T01:46:03,42.805,6.029,0.021,0.032,-0.011,105.0,109.0,102.0,13.4,1505.3,324.2,-0.7,1.9,2470.283,13.33,0.038,33.3
2020-05-25T01:49:03,42.805,6.029,0.02,0.029,0.02,106.0,108.0,103.0,13.4,1505.3,327.9,-0.7,1.8,2470.283,13.33,0.035,34.6
2020-05-25T01:52:03,42.805,6.029,-0.002,0.023,-0.021,105.0,108.0,104.0,13.4,1505.3,326.0,-0.7,1.8,2470.213,13.33,0.023,355.0
2020-05-25T01:55:03,42.805,6.029,-0.021,0.02,-0.024,106.0,109.0,104.0,13.4,1505.3,322.8,-0.7,1.8,2470.21,13.33,0.028,313.6
2020-05-25T01:58:03,42.805,6.029,-0.018,0.038,-0.027,107.0,109.0,102.0,13.4,1505.3,326.8,-0.7,1.8,2470.302,13.33,0.042,334.7
2020-05-25T02:04:03,42.805,6.029,-0.02,0.026,-0.041,106.0,109.0,103.0,13.4,1505.3,323.2,-0.7,1.8,2470.339,13.31,0.032,322.4
2020-05-25T02:07:03,42.805,6.029,0.0,0.018,0.0,107.0,108.0,102.0,13.4,1505.3,324.6,-0.7,1.8,2470.314,13.32,0.018,0.0
2020-05-25T02:10:03,42.805,6.029,-0.038,0.008,-0.047,106.0,108.0,102.0,13.3,1505.3,324.9,-0.7,1.9,2470.292,13.32,0.038,281.9
2020-05-25T02:13:03,42.805,6.029,0.003,0.055,-0.002,104.0,108.0,103.0,13.4,1505.3,327.7,-0.7,1.8,2470.314,13.33,0.055,3.1
2020-05-25T02:16:03,42.805,6.029,-0.015,0.03,-0.018,106.0,109.0,101.0,13.4,1505.3,326.9,-0.7,1.8,2470.297,13.33,0.033,333.4
2020-05-25T02:19:03,42.805,6.029,0.012,0.027,0.005,104.0,108.0,102.0,13.4,1505.3,323.2,-0.7,1.8,2470.281,13.33,0.029,24.0
2020-05-25T02:22:03,42.805,6.029,-0.012,0.034,-0.007,104.0,109.0,102.0,13.4,1505.3,324.6,-0.7,1.8,2470.264,13.33,0.036,340.6
2020-05-25T02:25:03,42.805,6.029,-0.018,0.024,-0.012,105.0,109.0,102.0,13.3,1505.3,323.7,-0.7,1.8,2470.266,13.33,0.03,323.1
2020-05-25T02:28:03,42.805,6.029,0.002,0.047,0.031,104.0,108.0,102.0,13.3,1505.3,325.0,-0.7,1.9,2470.29,13.33,0.047,2.4
2020-05-25T02:31:03,42.805,6.029,0.004,0.017,-0.012,104.0,109.0,103.0,13.4,1505.3,328.4,-0.7,1.8,2470.282,13.33,0.017,13.2
2020-05-25T02:34:03,42.805,6.029,0.0,0.044,-0.021,104.0,109.0,102.0,13.3,1505.3,323.7,-0.7,1.8,2470.265,13.33,0.044,0.0
2020-05-25T02:37:03,42.805,6.029,-0.018,0.036,-0.01,107.0,108.0,102.0,13.4,1505.3,325.0,-0.7,1.8,2470.248,13.33,0.04,333.4
2020-05-25T02:40:03,42.805,6.029,0.003,0.051,0.002,105.0,109.0,101.0,13.4,1505.3,328.1,-0.7,1.8,2470.289,13.33,0.051,3.4
2020-05-25T02:43:03,42.805,6.029,0.0,0.029,-0.025,107.0,108.0,102.0,13.3,1505.3,323.3,-0.7,1.8,2470.266,13.33,0.028,0.0
2020-05-25T02:46:03,42.805,6.029,0.0,0.026,-0.031,105.0,109.0,103.0,13.4,1505.3,326.8,-0.7,1.8,2470.253,13.33,0.026,0.0
2020-05-25T02:49:03,42.805,6.029,-0.021,0.032,-0.02,106.0,109.0,102.0,13.4,1505.3,325.5,-0.7,1.8,2470.264,13.33,0.038,326.7
2020-05-25T02:52:03,42.805,6.029,-0.024,0.012,-0.04,106.0,108.0,102.0,13.3,1505.3,326.3,-0.7,1.9,2470.255,13.33,0.026,296.6
2020-05-25T02:55:03,42.805,6.029,-0.033,0.028,-0.014,105.0,109.0,102.0,13.4,1505.3,327.3,-0.7,1.8,2470.259,13.33,0.043,310.3
2020-05-25T02:58:03,42.805,6.029,0.024,0.014,0.006,105.0,107.0,101.0,13.4,1505.3,327.5,-0.7,1.8,2470.265,13.33,0.027,59.7
2020-05-25T03:04:03,42.805,6.029,-0.001,0.032,0.005,104.0,109.0,102.0,13.4,1505.3,323.7,-0.7,1.8,2470.276,13.31,0.032,358.2
2020-05-25T03:07:03,42.805,6.029,-0.002,0.032,0.004,105.0,109.0,102.0,13.4,1505.3,324.7,-0.7,1.8,2470.29,13.32,0.032,356.4
2020-05-25T03:10:03,42.805,6.029,-0.013,0.028,-0.014,106.0,108.0,102.0,13.3,1505.3,323.4,-0.7,1.9,2470.279,13.32,0.03,335.1
2020-05-25T03:13:03,42.805,6.029,-0.018,0.035,-0.024,105.0,109.0,103.0,13.3,1505.3,326.5,-0.7,1.8,2470.257,13.33,0.039,332.8
2020-05-25T03:16:03,42.805,6.029,0.01,0.015,-0.006,104.0,109.0,101.0,13.3,1505.3,326.9,-0.7,1.8,2470.282,13.33,0.018,33.7
2020-05-25T03:19:03,42.805,6.029,-0.027,0.025,-0.016,105.0,107.0,103.0,13.3,1505.3,324.3,-0.6,1.9,2470.251,13.33,0.036,312.8
2020-05-25T03:22:03,42.805,6.029,0.0,0.028,-0.003,106.0,108.0,102.0,13.4,1505.3,326.9,-0.7,1.8,2470.218,13.33,0.028,0.0
2020-05-25T03:25:03,42.805,6.029,0.007,0.017,0.015,106.0,107.0,103.0,13.4,1505.3,325.1,-0.7,1.9,2470.235,13.33,0.018,22.4
2020-05-25T03:28:03,42.805,6.029,0.0,0.031,-0.024,104.0,109.0,102.0,13.3,1505.3,326.5,-0.7,1.9,2470.264,13.33,0.03,0.0
2020-05-25T03:31:03,42.805,6.029,0.014,0.029,-0.008,103.0,108.0,102.0,13.3,1505.3,326.9,-0.7,1.8,2470.254,13.33,0.032,25.8
2020-05-25T03:34:03,42.805,6.029,-0.014,0.031,-0.036,105.0,108.0,103.0,13.4,1505.3,325.0,-0.7,1.8,2470.212,13.33,0.034,335.7
2020-05-25T03:37:03,42.805,6.029,-0.016,0.032,-0.019,105.0,109.0,102.0,13.4,1505.3,323.8,-0.7,1.9,2470.229,13.33,0.035,333.4
2020-05-25T03:40:03,42.805,6.029,-0.011,0.033,-0.018,105.0,108.0,104.0,13.3,1505.3,326.4,-0.7,1.8,2470.249,13.33,0.034,341.6
2020-05-25T03:43:03,42.805,6.029,-0.01,0.028,-0.008,106.0,108.0,102.0,13.3,1505.3,326.6,-0.7,1.8,2470.245,13.33,0.029,340.4
2020-05-25T03:46:03,42.805,6.029,-0.019,0.035,-0.009,105.0,107.0,102.0,13.4,1505.3,328.3,-0.7,1.8,2470.254,13.33,0.039,331.5
2020-05-25T03:49:03,42.805,6.029,-0.017,0.025,-0.014,105.0,109.0,102.0,13.4,1505.3,327.6,-0.7,1.8,2470.222,13.33,0.03,325.8
2020-05-25T03:52:03,42.805,6.029,0.0,0.01,-0.034,104.0,109.0,102.0,13.4,1505.3,325.7,-0.7,1.8,2470.238,13.33,0.01,0.0
2020-05-25T03:55:03,42.805,6.029,-0.012,0.028,0.02,104.0,108.0,103.0,13.4,1505.3,327.8,-0.7,1.8,2470.239,13.33,0.03,336.8
2020-05-25T03:58:03,42.805,6.029,-0.009,0.04,-0.011,104.0,108.0,102.0,13.3,1505.3,325.2,-0.7,1.8,2470.222,13.33,0.041,347.3
2020-05-25T04:04:03,42.805,6.029,0.001,0.017,-0.031,106.0,107.0,101.0,13.4,1505.3,326.6,-0.7,1.8,2470.272,13.31,0.017,3.4
2020-05-25T04:07:03,42.805,6.029,0.0,0.024,-0.003,104.0,109.0,102.0,13.3,1505.3,327.0,-0.7,1.9,2470.271,13.32,0.024,0.0
2020-05-25T04:10:03,42.805,6.029,-0.021,0.023,-0.037,105.0,108.0,102.0,13.4,1505.3,324.9,-0.7,1.9,2470.279,13.32,0.031,317.6
2020-05-25T04:13:03,42.805,6.029,-0.02,0.032,-0.071,104.0,108.0,102.0,13.4,1505.3,327.9,-0.7,1.8,2470.241,13.33,0.037,328.0
2020-05-25T04:16:03,42.805,6.029,-0.01,0.0,-0.026,105.0,108.0,103.0,13.4,1505.3,325.8,-0.7,1.8,2470.241,13.33,0.01,270.0
2020-05-25T04:19:03,42.805,6.029,0.008,0.019,0.02,104.0,107.0,103.0,13.4,1505.3,327.6,-0.7,1.8,2470.26,13.33,0.02,22.8
2020-05-25T04:22:03,42.805,6.029,-0.016,0.041,0.006,104.0,106.0,101.0,13.4,1505.3,324.3,-0.7,1.8,2470.261,13.33,0.044,338.7
2020-05-25T04:25:03,42.805,6.029,-0.015,0.034,-0.008,104.0,107.0,102.0,13.4,1505.3,327.9,-0.7,1.8,2470.239,13.33,0.037,336.2
2020-05-25T04:28:03,42.805,6.029,-0.013,0.041,-0.041,104.0,108.0,102.0,13.3,1505.3,325.2,-0.7,1.8,2470.265,13.33,0.043,342.4
2020-05-25T04:31:03,42.805,6.029,-0.009,0.034,0.0,104.0,109.0,101.0,13.4,1505.3,326.7,-0.7,1.8,2470.227,13.33,0.035,345.2
2020-05-25T04:34:03,42.805,6.029,0.009,0.018,0.004,104.0,107.0,102.0,13.3,1505.3,325.6,-0.7,1.9,2470.27,13.33,0.02,26.6
2020-05-25T04:37:03,42.805,6.029,-0.008,0.013,-0.02,104.0,107.0,102.0,13.4,1505.3,326.2,-0.7,1.8,2470.237,13.33,0.015,328.4
2020-05-25T04:40:03,42.805,6.029,-0.011,0.04,0.006,104.0,108.0,103.0,13.3,1505.3,324.5,-0.7,1.8,2470.282,13.33,0.041,344.6
2020-05-25T04:43:03,42.805,6.029,0.008,0.02,0.002,104.0,107.0,101.0,13.3,1505.3,327.9,-0.7,1.9,2470.23,13.33,0.021,21.8
2020-05-25T04:46:03,42.805,6.029,-0.035,0.01,-0.04,104.0,108.0,101.0,13.4,1505.3,326.0,-0.7,1.8,2470.296,13.33,0.036,285.9
2020-05-25T04:49:03,42.805,6.029,0.014,0.023,0.006,105.0,108.0,102.0,13.4,1505.3,323.5,-0.7,1.8,2470.279,13.33,0.026,31.3
2020-05-25T04:52:03,42.805,6.029,0.02,0.032,0.008,106.0,108.0,102.0,13.4,1505.4,324.4,-0.7,1.8,2470.227,13.34,0.037,32.0
2020-05-25T04:55:03,42.805,6.029,-0.004,0.032,-0.043,107.0,108.0,102.0,13.4,1505.4,326.2,-0.7,1.8,2470.282,13.34,0.032,352.9
2020-05-25T04:58:03,42.805,6.029,-0.018,0.032,-0.013,103.0,107.0,102.0,13.3,1505.4,324.0,-0.7,1.8,2470.252,13.34,0.036,330.6
2020-05-25T05:04:03,42.805,6.029,-0.002,0.031,-0.018,104.0,108.0,102.0,13.4,1505.3,328.1,-0.7,1.8,2470.261,13.31,0.031,356.3
2020-05-25T05:07:03,42.805,6.029,-0.024,0.039,-0.046,105.0,108.0,102.0,13.3,1505.3,325.2,-0.7,1.8,2470.277,13.32,0.045,328.4
2020-05-25T05:10:03,42.805,6.029,0.003,0.034,-0.017,104.0,107.0,102.0,13.4,1505.3,323.4,-0.7,1.8,2470.312,13.32,0.034,5.0
2020-05-25T05:13:03,42.805,6.029,0.003,0.031,-0.004,104.0,109.0,102.0,13.3,1505.3,326.4,-0.7,1.9,2470.264,13.33,0.031,5.5
2020-05-25T05:16:03,42.805,6.029,-0.006,0.021,-0.03,105.0,106.0,102.0,13.3,1505.3,326.8,-0.7,1.9,2470.247,13.33,0.021,344.1
2020-05-25T05:19:03,42.805,6.029,-0.018,0.023,-0.035,103.0,108.0,103.0,13.3,1505.3,323.9,-0.7,1.9,2470.301,13.33,0.029,322.0
2020-05-25T05:22:03,42.805,6.029,-0.016,0.024,0.0,105.0,107.0,102.0,13.3,1505.3,324.6,-0.7,1.8,2470.296,13.33,0.028,326.3
2020-05-25T05:25:03,42.805,6.029,-0.008,0.035,0.006,104.0,107.0,103.0,13.4,1505.3,322.6,-0.7,1.8,2470.245,13.33,0.035,347.1
2020-05-25T05:28:03,42.805,6.029,-0.004,0.009,-0.026,103.0,110.0,104.0,13.3,1505.4,324.2,-0.7,1.8,2470.32,13.34,0.009,336.0
2020-05-25T05:31:03,42.805,6.029,-0.02,0.016,-0.007,105.0,107.0,101.0,13.3,1505.4,323.1,-0.7,1.8,2470.297,13.34,0.025,308.7
2020-05-25T05:34:03,42.805,6.029,0.006,0.022,-0.017,105.0,107.0,102.0,13.4,1505.4,327.7,-0.7,1.9,2470.274,13.34,0.022,15.3
2020-05-25T05:37:03,42.805,6.029,-0.025,0.008,-0.001,104.0,107.0,103.0,13.4,1505.4,327.1,-0.7,1.8,2470.272,13.34,0.026,287.7
2020-05-25T05:40:03,42.805,6.029,-0.016,0.006,-0.066,105.0,107.0,103.0,13.3,1505.4,327.5,-0.7,1.8,2470.314,13.34,0.017,290.6
2020-05-25T05:43:03,42.805,6.029,0.013,0.027,-0.024,105.0,108.0,103.0,13.3,1505.4,326.4,-0.7,1.8,2470.318,13.34,0.029,25.7
2020-05-25T05:46:03,42.805,6.029,-0.013,0.021,-0.044,106.0,109.0,102.0,13.4,1505.4,324.4,-0.7,1.9,2470.278,13.34,0.024,328.2
2020-05-25T05:49:03,42.805,6.029,-0.035,0.029,-0.013,105.0,109.0,102.0,13.4,1505.4,327.0,-0.7,1.8,2470.28,13.34,0.045,309.6
2020-05-25T05:52:03,42.805,6.029,0.001,0.02,0.015,104.0,110.0,101.0,13.3,1505.3,325.2,-0.7,1.9,2470.322,13.33,0.02,2.9
2020-05-25T05:55:03,42.805,6.029,-0.016,0.035,-0.016,105.0,108.0,101.0,13.4,1505.3,325.2,-0.7,1.9,2470.309,13.33,0.038,335.4
2020-05-25T05:58:03,42.805,6.029,-0.011,0.016,-0.015,105.0,108.0,102.0,13.4,1505.4,323.0,-0.7,1.9,2470.317,13.34,0.019,325.5
2020-05-25T06:04:03,42.805,6.029,-0.001,0.011,-0.021,104.0,107.0,103.0,13.3,1505.3,325.7,-0.7,1.8,2470.357,13.32,0.011,354.8
2020-05-25T06:07:03,42.805,6.029,-0.008,0.027,0.005,104.0,107.0,102.0,13.4,1505.3,324.7,-0.7,1.8,2470.337,13.32,0.028,343.5
2020-05-25T06:10:03,42.805,6.029,0.006,0.017,-0.021,103.0,108.0,102.0,13.4,1505.3,327.1,-0.7,1.8,2470.336,13.33,0.018,19.4
2020-05-25T06:13:03,42.805,6.029,0.019,0.006,0.0,105.0,107.0,103.0,13.3,1505.3,326.7,-0.7,1.8,2470.318,13.33,0.019,72.5
2020-05-25T06:16:03,42.805,6.029,-0.009,0.026,-0.029,106.0,107.0,102.0,13.4,1505.3,325.8,-0.7,1.8,2470.372,13.33,0.027,340.9
2020-05-25T06:19:03,42.805,6.029,-0.016,0.021,-0.045,112.0,107.0,101.0,13.3,1505.3,323.9,-0.7,1.8,2470.306,13.33,0.026,322.7
2020-05-25T06:22:03,42.805,6.029,-0.024,0.022,-0.036,104.0,107.0,102.0,13.4,1505.3,325.2,-0.7,1.8,2470.358,13.33,0.032,312.5
2020-05-25T06:25:03,42.805,6.029,-0.016,0.024,-0.026,103.0,108.0,101.0,13.3,1505.3,327.8,-0.7,1.8,2470.319,13.33,0.028,326.3
2020-05-25T06:28:03,42.805,6.029,-0.027,0.031,-0.017,105.0,108.0,102.0,13.4,1505.3,326.1,-0.7,1.9,2470.331,13.33,0.041,318.9
2020-05-25T06:31:03,42.805,6.029,-0.028,0.024,-0.025,103.0,109.0,101.0,13.4,1505.3,325.0,-0.7,1.8,2470.35,13.33,0.036,310.6
2020-05-25T06:34:03,42.805,6.029,0.002,-0.007,-0.043,105.0,107.0,101.0,13.4,1505.3,324.3,-0.7,1.8,2470.345,13.33,0.007,164.1
2020-05-25T06:37:03,42.805,6.029,-0.039,0.045,-0.043,104.0,108.0,101.0,13.4,1505.3,324.8,-0.7,1.8,2470.378,13.33,0.059,319.1
2020-05-25T06:40:03,42.805,6.029,-0.005,0.03,-0.018,104.0,108.0,102.0,13.4,1505.4,328.2,-0.7,1.8,2470.358,13.34,0.03,350.5
2020-05-25T06:43:03,42.805,6.029,-0.001,0.03,-0.028,105.0,106.0,102.0,13.4,1505.4,325.4,-0.7,1.8,2470.341,13.34,0.03,358.1
2020-05-25T06:46:03,42.805,6.029,0.0,0.017,-0.023,104.0,107.0,102.0,13.4,1505.4,325.0,-0.7,1.8,2470.337,13.34,0.017,0.0
2020-05-25T06:49:03,42.805,6.029,-0.004,0.015,-0.003,104.0,107.0,103.0,13.4,1505.4,326.5,-0.7,1.8,2470.314,13.34,0.015,345.1
2020-05-25T06:52:03,42.805,6.029,-0.016,0.018,-0.016,103.0,108.0,103.0,13.4,1505.4,324.5,-0.7,1.8,2470.366,13.34,0.024,318.4
2020-05-25T06:55:03,42.805,6.029,-0.007,0.035,-0.024,105.0,108.0,102.0,13.4,1505.3,324.9,-0.7,1.8,2470.361,13.33,0.035,348.7
2020-05-25T06:58:03,42.805,6.029,-0.012,0.024,-0.022,104.0,107.0,103.0,13.4,1505.4,326.5,-0.7,1.8,2470.331,13.34,0.026,333.4
2020-05-25T07:04:03,42.805,6.029,-0.01,-0.004,-0.008,105.0,107.0,101.0,13.4,1505.3,323.2,-0.7,1.8,2470.384,13.32,0.01,248.2
2020-05-25T07:07:03,42.805,6.029,-0.023,0.007,-0.037,105.0,108.0,102.0,13.3,1505.3,323.5,-0.7,1.8,2470.379,13.32,0.024,286.9
2020-05-25T07:10:03,42.805,6.029,-0.036,0.014,-0.026,104.0,107.0,103.0,13.3,1505.3,323.7,-0.7,1.8,2470.342,13.33,0.038,291.2
2020-05-25T07:13:03,42.805,6.029,-0.012,0.026,-0.025,103.0,108.0,102.0,13.3,1505.3,325.5,-0.8,1.8,2470.372,13.33,0.028,335.2
2020-05-25T07:16:03,42.805,6.029,0.0,0.034,-0.045,104.0,107.0,102.0,13.4,1505.3,327.5,-0.7,1.9,2470.36,13.33,0.034,0.0
2020-05-25T07:19:03,42.805,6.029,-0.025,0.026,-0.029,105.0,109.0,102.0,13.4,1505.3,325.0,-0.7,1.8,2470.365,13.33,0.036,316.1
2020-05-25T07:22:03,42.805,6.029,-0.03,-0.002,-0.039,103.0,109.0,102.0,13.3,1505.3,325.6,-0.7,1.8,2470.35,13.33,0.03,266.2
2020-05-25T07:25:03,42.805,6.029,-0.02,0.033,-0.007,103.0,107.0,101.0,13.4,1505.3,323.3,-0.7,1.8,2470.361,13.33,0.038,328.8
2020-05-25T07:28:03,42.805,6.029,-0.009,0.017,-0.006,104.0,108.0,102.0,13.3,1505.3,328.4,-0.7,1.8,2470.362,13.33,0.019,332.1
2020-05-25T07:31:03,42.805,6.029,-0.046,0.022,-0.041,103.0,108.0,102.0,13.3,1505.4,324.3,-0.7,1.8,2470.341,13.34,0.05,295.6
2020-05-25T07:34:03,42.805,6.029,-0.032,0.046,-0.026,103.0,109.0,101.0,13.4,1505.3,325.3,-0.7,1.8,2470.37,13.33,0.056,325.2
2020-05-25T07:37:03,42.805,6.029,-0.013,0.011,-0.044,103.0,107.0,101.0,13.3,1505.4,324.1,-0.7,1.8,2470.343,13.34,0.017,310.2
2020-05-25T07:40:03,42.805,6.029,-0.015,0.01,-0.029,104.0,107.0,103.0,13.4,1505.4,327.0,-0.7,1.8,2470.318,13.34,0.018,303.7
2020-05-25T07:43:03,42.805,6.029,-0.021,0.025,-0.031,104.0,110.0,103.0,13.4,1505.3,324.8,-0.7,1.8,2470.351,13.33,0.032,320.0
2020-05-25T07:46:03,42.805,6.029,-0.022,0.004,-0.05,103.0,109.0,103.0,13.4,1505.4,326.6,-0.7,1.8,2470.351,13.34,0.022,280.3
2020-05-25T07:49:03,42.805,6.029,-0.02,0.031,-0.018,105.0,106.0,102.0,13.4,1505.4,323.6,-0.7,1.8,2470.373,13.34,0.036,327.2
2020-05-25T07:52:03,42.805,6.029,-0.012,0.033,0.0,105.0,107.0,101.0,13.3,1505.4,328.1,-0.7,1.8,2470.322,13.34,0.035,340.0
2020-05-25T07:55:03,42.805,6.029,-0.012,0.03,-0.046,104.0,107.0,101.0,13.4,1505.4,327.2,-0.7,1.8,2470.353,13.34,0.032,338.2
2020-05-25T07:58:03,42.805,6.029,-0.04,0.023,-0.045,104.0,107.0,102.0,13.4,1505.4,324.8,-0.7,1.8,2470.349,13.34,0.046,299.9
2020-05-25T08:04:03,42.805,6.029,-0.032,0.012,-0.026,104.0,108.0,102.0,13.4,1505.3,323.6,-0.7,1.8,2470.399,13.32,0.034,290.6
2020-05-25T08:07:03,42.805,6.029,-0.035,0.037,-0.058,104.0,107.0,101.0,13.3,1505.3,327.9,-0.7,1.8,2470.378,13.32,0.05,316.6
2020-05-25T08:10:03,42.805,6.029,-0.01,0.027,0.018,104.0,109.0,103.0,13.3,1505.3,325.0,-0.7,1.9,2470.358,13.33,0.028,339.7
2020-05-25T08:13:03,42.805,6.029,-0.02,0.032,-0.04,104.0,107.0,103.0,13.3,1505.3,323.2,-0.7,1.8,2470.375,13.33,0.037,328.0
2020-05-25T08:16:03,42.805,6.029,0.007,0.026,-0.023,103.0,108.0,102.0,13.3,1505.3,325.5,-0.7,1.8,2470.368,13.33,0.026,15.1
2020-05-25T08:19:03,42.805,6.029,-0.022,0.042,-0.002,105.0,108.0,102.0,13.4,1505.3,323.3,-0.7,1.8,2470.358,13.33,0.047,332.4
2020-05-25T08:22:03,42.805,6.029,0.004,0.006,-0.011,104.0,108.0,102.0,13.3,1505.3,324.4,-0.7,1.8,2470.428,13.33,0.007,33.7
2020-05-25T08:25:03,42.805,6.029,-0.019,0.02,-0.046,104.0,109.0,102.0,13.4,1505.4,326.0,-0.7,1.9,2470.403,13.34,0.027,316.5
2020-05-25T08:28:03,42.805,6.029,0.0,0.028,-0.015,104.0,108.0,101.0,13.4,1505.4,326.0,-0.7,1.8,2470.374,13.34,0.028,0.0
2020-05-25T08:31:03,42.805,6.029,-0.016,0.027,-0.018,103.0,107.0,101.0,13.4,1505.4,328.5,-0.7,1.9,2470.345,13.34,0.031,329.3
2020-05-25T08:34:03,42.805,6.029,-0.024,0.027,-0.042,105.0,108.0,100.0,13.4,1505.4,324.8,-0.7,1.8,2470.368,13.34,0.036,318.4
2020-05-25T08:37:03,42.805,6.029,-0.016,0.03,-0.032,103.0,109.0,102.0,13.3,1505.3,324.4,-0.7,1.8,2470.312,13.33,0.034,331.9
2020-05-25T08:40:03,42.805,6.029,-0.024,0.028,-0.011,104.0,108.0,102.0,13.3,1505.3,324.8,-0.7,1.9,2470.366,13.33,0.036,319.4
2020-05-25T08:43:03,42.805,6.029,-0.016,0.025,0.02,104.0,109.0,102.0,13.4,1505.3,328.2,-0.7,1.8,2470.361,13.33,0.029,327.4
2020-05-25T08:46:03,42.805,6.029,-0.004,0.018,-0.024,104.0,109.0,102.0,13.4,1505.3,325.5,-0.7,1.8,2470.362,13.33,0.018,347.5
2020-05-25T08:49:03,42.805,6.029,-0.028,0.03,0.0,103.0,107.0,102.0,13.4,1505.3,322.9,-0.7,1.8,2470.349,13.33,0.041,317.0
2020-05-25T08:52:03,42.805,6.029,-0.038,0.024,-0.03,105.0,108.0,103.0,13.4,1505.4,323.8,-0.7,1.8,2470.354,13.34,0.044,302.3
2020-05-25T08:55:03,42.805,6.029,-0.01,0.039,0.014,103.0,109.0,102.0,13.4,1505.3,326.8,-0.7,1.8,2470.336,13.33,0.04,345.6
2020-05-25T08:58:02,42.805,6.029,-0.018,0.011,0.002,105.0,107.0,103.0,13.3,1505.4,325.0,-0.7,1.8,2470.314,13.34,0.021,301.4
2020-05-25T09:04:03,42.805,6.029,-0.005,0.009,-0.037,103.0,109.0,102.0,13.3,1505.3,326.2,-0.7,1.8,2470.367,13.32,0.01,330.9
2020-05-25T09:07:03,42.805,6.029,-0.003,0.013,-0.003,107.0,108.0,102.0,13.3,1505.3,325.1,-0.7,1.8,2470.41,13.32,0.013,347.0
2020-05-25T09:10:03,42.805,6.029,-0.016,0.027,-0.019,104.0,110.0,102.0,13.4,1505.3,327.8,-0.7,1.8,2470.369,13.33,0.031,329.3
2020-05-25T09:13:03,42.805,6.029,-0.03,0.025,-0.036,105.0,108.0,104.0,13.4,1505.3,327.9,-0.7,1.8,2470.371,13.33,0.039,309.8
2020-05-25T09:16:03,42.805,6.029,-0.007,0.037,-0.016,104.0,109.0,101.0,13.4,1505.3,327.0,-0.7,1.8,2470.404,13.33,0.037,349.3
2020-05-25T09:19:03,42.805,6.029,-0.005,0.007,-0.005,105.0,109.0,102.0,13.3,1505.3,324.8,-0.7,1.8,2470.355,13.33,0.008,324.5
2020-05-25T09:22:03,42.805,6.029,-0.036,0.021,-0.04,105.0,108.0,102.0,13.4,1505.3,324.9,-0.7,1.8,2470.365,13.33,0.041,300.3
2020-05-25T09:25:03,42.805,6.029,-0.025,0.019,-0.022,103.0,110.0,102.0,13.3,1505.3,326.4,-0.6,1.8,2470.378,13.33,0.031,307.2
2020-05-25T09:28:03,42.805,6.029,-0.029,0.027,-0.014,104.0,112.0,101.0,13.4,1505.3,324.3,-0.7,1.8,2470.327,13.33,0.039,313.0
2020-05-25T09:31:03,42.805,6.029,-0.004,0.008,-0.048,105.0,109.0,102.0,13.4,1505.3,324.8,-0.7,1.8,2470.383,13.33,0.008,333.4
2020-05-25T09:34:03,42.805,6.029,-0.019,0.01,0.0,106.0,109.0,101.0,13.4,1505.3,326.3,-0.7,1.8,2470.336,13.33,0.021,297.8
2020-05-25T09:37:02,42.805,6.029,0.011,0.006,-0.048,103.0,110.0,102.0,13.4,1505.3,323.9,-0.7,1.8,2470.357,13.33,0.012,61.4
2020-05-25T09:40:02,42.805,6.029,0.0,0.022,0.042,104.0,108.0,101.0,13.4,1505.3,326.8,-0.7,1.9,2470.34,13.33,0.022,0.0
2020-05-25T09:43:02,42.805,6.029,-0.029,0.024,-0.048,105.0,110.0,102.0,13.4,1505.3,324.9,-0.7,1.8,2470.324,13.33,0.037,309.6
2020-05-25T09:46:02,42.805,6.029,-0.04,0.04,0.0,103.0,111.0,103.0,13.4,1505.3,328.1,-0.7,1.8,2470.338,13.33,0.056,315.0
2020-05-25T09:49:02,42.805,6.029,-0.024,0.015,-0.031,105.0,109.0,102.0,13.4,1505.3,327.3,-0.7,1.8,2470.354,13.33,0.028,302.0
2020-05-25T09:52:03,42.805,6.029,-0.026,0.024,-0.02,105.0,109.0,102.0,13.4,1505.3,323.6,-0.7,1.8,2470.337,13.33,0.035,312.7
2020-05-25T09:55:02,42.805,6.029,-0.021,0.045,-0.007,104.0,110.0,102.0,13.4,1505.3,325.8,-0.7,1.8,2470.332,13.33,0.049,335.0
2020-05-25T09:58:02,42.805,6.029,-0.023,0.017,-0.023,104.0,108.0,100.0,13.3,1505.3,324.9,-0.7,1.9,2470.307,13.33,0.028,306.5